Weather History for Galesburg, IL

Change the Weather History Date:

Saturday, November 19, 2011

  Actual Average Record
Temperature  
Mean Temperature 50 °F -  
Max Temperature 60 °F 49 °F 71 °F (1953)
Min Temperature 41 °F 31 °F 15 °F (1969)
Degree Days  
Heating Degree Days 14    
Moisture  
Dew Point 34 °F    
Average Humidity 51    
Maximum Humidity 75    
Minimum Humidity 39    
Precipitation  
Precipitation 0.00 in - - ()
Sea Level Pressure  
Sea Level Pressure 29.79 in    
Wind  
Wind Speed 11 mph (SSE)    
Max Wind Speed 22 mph    
Max Gust Speed 31 mph    
Visibility 10 miles    
Events      
Averages and records for this station are not official NWS values.
T = Trace of Precipitation, MM = Missing Value Source: NWS Daily Summary

Daily Weather History Graph

Daily Weather History Graph

Search for Another Location

Airport:

Trip Planner

Search our weather history database for the weather conditions in past years. The results will help you decide how hot, cold, wet, or windy it might be!

Date:

Astronomy

Nov. 19, 2011 Rise Set
Actual Time 6:53 AM CST 4:40 PM CST
Civil Twilight 6:23 AM CST 5:10 PM CST
Nautical Twilight 5:50 AM CST 5:43 PM CST
Astronomical Twilight 5:17 AM CST 6:16 PM CST
Moon 12:11 AM CST (11/19) 1:00 PM CST (11/19)
Length of Visible Light 10h 46m
Length of Day
9h 46m
Last Quarter, 38% of the Moon is Illuminated
Nov 19
Last Quarter
Nov 25
New
Dec 2
First Quarter
Dec 10
Full
Dec 17
Last Quarter

Hourly Weather History & Observations

Time (CST) Temp. Windchill Dew Point Humidity Pressure Visibility Wind Dir Wind Speed Gust Speed Precip Events Conditions
12:15 AM 42.4 °F 37.5 °F 19.9 °F 41% 29.88 in 10.0 mi SE 8.1 mph - N/A   Clear
12:35 AM 42.8 °F 37.5 °F 20.1 °F 40% 29.88 in 10.0 mi SE 9.2 mph - N/A   Clear
12:55 AM 42.8 °F 37.5 °F 20.7 °F 41% 29.88 in 10.0 mi SE 9.2 mph - N/A   Clear
1:15 AM 42.8 °F 38.0 °F 21.2 °F 42% 29.87 in 10.0 mi SE 8.1 mph - N/A   Clear
1:35 AM 42.3 °F 36.8 °F 21.7 °F 44% 29.86 in 10.0 mi SE 9.2 mph - N/A   Clear
1:55 AM 42.3 °F 36.8 °F 22.1 °F 45% 29.87 in 10.0 mi SSE 9.2 mph - N/A   Clear
2:15 AM 42.3 °F 36.8 °F 22.6 °F 46% 29.86 in 10.0 mi SE 9.2 mph - N/A   Clear
2:35 AM 42.4 °F 37.5 °F 23.0 °F 46% 29.86 in 10.0 mi SSE 8.1 mph - N/A   Clear
2:55 AM 43.2 °F 37.9 °F 23.5 °F 46% 29.86 in 10.0 mi SSE 9.2 mph - N/A   Clear
3:15 AM 43.3 °F 38.6 °F 23.7 °F 46% 29.86 in 10.0 mi SSE 8.1 mph - N/A   Scattered Clouds
3:35 AM 44.6 °F 40.2 °F 24.3 °F 45% 29.85 in 10.0 mi SSE 8.1 mph - N/A   Overcast
3:55 AM 46.0 °F 41.0 °F 24.4 °F 43% 29.84 in 10.0 mi SSE 10.4 mph - N/A   Overcast
4:15 AM 46.8 °F - 24.8 °F 42% 29.84 in 10.0 mi SSE 11.5 mph - N/A   Overcast
4:35 AM 46.8 °F - 25.3 °F 43% 29.84 in 10.0 mi SE 8.1 mph - N/A   Overcast
4:55 AM 46.6 °F - 25.3 °F 43% 29.83 in 10.0 mi SE 8.1 mph - N/A   Overcast
5:15 AM 46.6 °F - 25.3 °F 43% 29.83 in 10.0 mi SE 8.1 mph - N/A   Overcast
5:35 AM 46.9 °F - 25.3 °F 43% 29.82 in 10.0 mi SE 9.2 mph - N/A   Overcast
5:55 AM 46.4 °F 42.4 °F 24.8 °F 43% 29.82 in 10.0 mi SE 8.1 mph - N/A   Overcast
6:15 AM 47.5 °F - 25.5 °F 42% 29.82 in 10.0 mi SE 6.9 mph - N/A   Overcast
6:35 AM 47.7 °F - 25.5 °F 42% 29.82 in 10.0 mi SE 6.9 mph - N/A   Overcast
6:55 AM 47.8 °F - 25.9 °F 42% 29.82 in 10.0 mi SE 6.9 mph - N/A   Overcast
7:15 AM 48.2 °F - 26.2 °F 42% 29.82 in 10.0 mi SE 6.9 mph - N/A   Overcast
7:35 AM 48.4 °F - 26.4 °F 42% 29.81 in 10.0 mi SE 6.9 mph - N/A   Overcast
7:55 AM 48.9 °F - 27.0 °F 43% 29.81 in 10.0 mi SE 8.1 mph - N/A   Overcast
8:15 AM 49.3 °F - 27.9 °F 44% 29.81 in 10.0 mi SSE 9.2 mph - N/A   Overcast
8:35 AM 50.5 °F - 27.3 °F 41% 29.80 in 10.0 mi SE 10.4 mph - N/A   Overcast
8:55 AM 51.4 °F - 27.5 °F 40% 29.80 in 10.0 mi SSE 11.5 mph 18.4 mph N/A   Overcast
9:15 AM 52.0 °F - 27.5 °F 39% 29.79 in 10.0 mi SSE 13.8 mph - N/A   Overcast
9:35 AM 52.3 °F - 28.2 °F 39% 29.79 in 10.0 mi SSE 12.7 mph 24.2 mph N/A   Overcast
9:55 AM 53.1 °F - 29.5 °F 40% 29.78 in 10.0 mi SSE 15.0 mph 18.4 mph N/A   Overcast
10:15 AM 53.8 °F - 30.7 °F 41% 29.77 in 10.0 mi SSE 15.0 mph 20.7 mph N/A   Overcast
10:35 AM 55.4 °F - 32.0 °F 41% 29.76 in 10.0 mi SE 11.5 mph 17.3 mph N/A   Overcast
10:55 AM 55.4 °F - 32.0 °F 41% 29.74 in 10.0 mi SE 16.1 mph 20.7 mph N/A   Overcast
11:15 AM 56.1 °F - 32.4 °F 41% 29.73 in 10.0 mi SSE 17.3 mph 26.5 mph N/A   Overcast
11:35 AM 56.1 °F - 33.8 °F 43% 29.72 in 10.0 mi SSE 16.1 mph 26.5 mph N/A   Overcast
11:55 AM 56.8 °F - 34.9 °F 44% 29.71 in 10.0 mi SSE 21.9 mph 31.1 mph N/A   Overcast
12:15 PM 57.2 °F - 35.8 °F 45% 29.71 in 10.0 mi SSE 19.6 mph 26.5 mph N/A   Overcast
12:35 PM 57.2 °F - 36.9 °F 47% 29.70 in 10.0 mi SSE 17.3 mph 27.6 mph N/A   Overcast
12:55 PM 56.8 °F - 37.9 °F 49% 29.71 in 10.0 mi SSE 18.4 mph 24.2 mph N/A   Overcast
1:15 PM 57.2 °F - 39.2 °F 51% 29.69 in 10.0 mi SSE 16.1 mph 21.9 mph N/A   Overcast
1:35 PM 57.7 °F - 39.2 °F 50% 29.68 in 10.0 mi SE 15.0 mph - N/A   Overcast
1:55 PM 57.4 °F - 39.6 °F 51% 29.68 in 10.0 mi SE 11.5 mph 18.4 mph N/A   Overcast
2:15 PM 57.6 °F - 39.9 °F 52% 29.67 in 10.0 mi SE 10.4 mph 17.3 mph N/A   Overcast
2:35 PM 57.6 °F - 40.3 °F 53% 29.67 in 10.0 mi SE 10.4 mph 18.4 mph N/A   Overcast
2:55 PM 58.1 °F - 41.0 °F 53% 29.67 in 10.0 mi SE 10.4 mph - N/A   Overcast
3:15 PM 58.3 °F - 41.5 °F 54% 29.67 in 10.0 mi SE 9.2 mph 16.1 mph N/A   Overcast
3:35 PM 59.0 °F - 41.9 °F 53% 29.67 in 10.0 mi SE 8.1 mph - N/A   Overcast
3:55 PM 59.4 °F - 42.4 °F 54% 29.67 in 10.0 mi SE 9.2 mph - N/A   Overcast
4:15 PM 59.5 °F - 43.0 °F 54% 29.68 in 10.0 mi SSE 10.4 mph 16.1 mph N/A   Overcast
4:35 PM 59.9 °F - 43.2 °F 54% 29.68 in 10.0 mi SE 11.5 mph 16.1 mph N/A   Overcast
4:55 PM 59.9 °F - 43.7 °F 55% 29.68 in 10.0 mi SSE 12.7 mph 18.4 mph N/A   Overcast
5:15 PM 59.9 °F - 44.6 °F 57% 29.68 in 10.0 mi SSE 11.5 mph - N/A   Overcast
5:35 PM 59.2 °F - 45.0 °F 59% 29.69 in 10.0 mi SSE 9.2 mph 16.1 mph N/A   Mostly Cloudy
5:55 PM 59.4 °F - 45.5 °F 60% 29.69 in 10.0 mi SSE 9.2 mph - N/A   Overcast
6:15 PM 59.4 °F - 46.0 °F 61% 29.70 in 10.0 mi SSE 10.4 mph - N/A   Overcast
6:35 PM 59.4 °F - 46.4 °F 62% 29.71 in 10.0 mi SSE 11.5 mph - N/A   Overcast
6:55 PM 59.9 °F - 47.1 °F 63% 29.71 in 10.0 mi South 8.1 mph - N/A   Overcast
7:15 PM 60.8 °F - 47.8 °F 62% 29.74 in 10.0 mi South 13.8 mph - N/A   Overcast
7:35 PM 60.3 °F - 47.7 °F 63% 29.75 in 10.0 mi SSW 9.2 mph - N/A   Overcast
7:55 PM 59.0 °F - 47.5 °F 66% 29.77 in 10.0 mi SW 6.9 mph - N/A   Overcast
8:15 PM 60.3 °F - 47.1 °F 62% 29.79 in 10.0 mi WSW 12.7 mph - N/A   Mostly Cloudy
8:35 PM 59.2 °F - 45.5 °F 60% 29.81 in 10.0 mi West 18.4 mph 21.9 mph N/A   Mostly Cloudy
8:55 PM 54.9 °F - 42.8 °F 64% 29.85 in 10.0 mi West 21.9 mph 28.8 mph N/A   Scattered Clouds
9:15 PM 51.1 °F - 41.2 °F 69% 29.87 in 10.0 mi West 19.6 mph 31.1 mph N/A   Clear
9:35 PM 49.5 °F - 40.3 °F 71% 29.89 in 10.0 mi West 17.3 mph - N/A   Clear
9:55 PM 47.7 °F - 39.4 °F 73% 29.90 in 10.0 mi West 15.0 mph 23.0 mph N/A   Clear
10:15 PM 46.4 °F 39.2 °F 37.4 °F 71% 29.92 in 10.0 mi West 18.4 mph 21.9 mph N/A   Clear
10:35 PM 43.0 °F 34.2 °F 35.2 °F 74% 29.95 in 10.0 mi West 20.7 mph 25.3 mph N/A   Scattered Clouds
10:55 PM 42.8 °F 34.8 °F 35.2 °F 75% 29.96 in 10.0 mi West 17.3 mph 23.0 mph N/A   Mostly Cloudy
11:15 PM 42.8 °F 34.8 °F 34.7 °F 73% 29.98 in 10.0 mi West 17.3 mph 24.2 mph N/A   Overcast
11:35 PM 41.7 °F 34.4 °F 34.2 °F 75% 30.01 in 10.0 mi West 13.8 mph - N/A   Overcast
11:55 PM 41.0 °F 31.9 °F 32.0 °F 70% 30.03 in 10.0 mi WNW 19.6 mph 25.3 mph N/A   Overcast